STARLINK-11500, 62472

Orbit data source: Space-Track

STARLINK-11500, 62472 is a payload satellite owned by SpaceX/Seattle (US) in LEO that was launched on Tue, 31 Dec 2024 UTC via an FALCON 9 launch vehicle from the Air Force Eastern Test Range (AFETR). Payload-class satellites include a variety of spacecraft equipped with specific instruments for various scientific and technological missions. These include communications satellites like Starlink; space stations such as the ISS; scientific satellites like the Hubble; Earth observation satellites from companies like Planet Labs, Umbra, and HawkEye 360; GPS; miniature CubeSats for education and research; and military/defense satellites.

Loading next visibility...
Identifier
62472, 2024-254L
Orbit
LEO
Country
Flag of USUS
Related business
Manufacturer
SpaceX/Seattle
Mission
Operational Commercial Communications
Bus & Motor
STARLINK V2M, Unknown motor
Mass
730 kg wet, ~700 kg dry
Launch date (UTC)
2024-12-31 (8 months ago)
Launch vehicle
FALCON 9
Launch site
Air Force Eastern Test Range (AFETR)
Object type
Payload
Rocket body
Debris
Shape & HBR
Box + 2 Pan, 14.5 m
Radar Cross Section
36.964 m², Large (>1 m²)

Expand to show TLE details & history
Last TLE update: 21 hours ago

TLE from 21 hours ago
0 STARLINK-11500
1 62472U 24254L   25242.17249977  .00299432  00000-0  22365-2 0  9998
2 62472  42.9998 297.1066 0002584 301.3647  58.6968 15.71025549 38752
Epoch: 2025-08-30T04:08Z
TLE epoch observation values (Epoch: 2025-08-30T04:08:23.98Z)
Latitude
0.00002°
Longitude
-103.6039°
Altitude
354.832 km
Speed
7.699 km/s
True Right ascension
19h 48m 25s
True Declination
0° 00' 00"
Sunlit
Object was in full shadow at epoch
Visualization orbit readout
Latitude
Unknown
Longitude
Unknown
Altitude
Unknown
Speed
Unknown
Apparent Right ascension
Unknown
Apparent Declination
Unknown
Sunlit
N/A
Visualization observer readout
Local Sidereal Time
16:21:11
Azimuth
Unknown
Elevation
Unknown
Doppler factor
Unknown
Orbital elements
Apogee altitude
359.687 km
Perigee altitude
356.206 km
Semi-major axis
6,736.084 km
Eccentricity
0.00026
Inclination
42.9998°
RAAN
297.1066°
Arg. of periapsis
301.3647°
True anomaly
58.7221°
Mean anomaly
58.6968°
Eccentric anomaly
58.70945°
Mean motion
3.92583 °/min
Orbital period
91.7 mins
BSTAR
0.0022365
Loading maneuver chart data...
Computing Atmospheric mass density...
Loading historical data...
Loading historical data...
Loading historical data...
Loading historical data...
Loading historical data...
Loading historical data...
Loading historical data...

Documentation

Showing up to 5 results
|